STARLINK-11162, 60123

Orbit data source: Space-Track

STARLINK-11162, 60123 is a payload satellite owned by SpaceX/Seattle (US) in LEO that was launched on Mon, 24 Jun 2024 UTC via an FALCON 9 launch vehicle from the Air Force Western Test Range (AFWTR). Payload-class satellites include a variety of spacecraft equipped with specific instruments for various scientific and technological missions. These include communications satellites like Starlink; space stations such as the ISS; scientific satellites like the Hubble; Earth observation satellites from companies like Planet Labs, Umbra, and HawkEye 360; GPS; miniature CubeSats for education and research; and military/defense satellites.

Loading next visibility...
Identifier
60123, 2024-118L
Orbit
LEO
Country
Flag of USUS
Related business
Manufacturer
SpaceX/Seattle
Mission
Operational Commercial Communications
Bus & Motor
STARLINK V2MD, Unknown motor
Mass
960 kg wet, ~910 kg dry
Launch date (UTC)
2024-06-24 (1 year ago)
Launch vehicle
FALCON 9
Launch site
Air Force Western Test Range (AFWTR)
Object type
Payload
Rocket body
Debris
Shape & HBR
Box + 2 Pan, 18.1 m
Radar Cross Section
36.964 m², Large (>1 m²)

Expand to show TLE details & history
Last TLE update: 1 day ago

TLE from 1 day ago
0 STARLINK-11162
1 60123U 24118L   25303.27030056 -.00000130  00000-0  37826-5 0  9990
2 60123  53.1587 143.8747 0000920  83.1164 276.9958 15.69715156 77513
Epoch: 2025-10-30T06:29Z
TLE epoch observation values (Epoch: 2025-10-30T06:29:13.968Z)
Latitude
-0.00006°
Longitude
7.73496°
Altitude
360.551 km
Speed
7.694 km/s
True Right ascension
09h 35m 29s
True Declination
0° 00' 00"
Sunlit
Object was in daylight at epoch
Visualization orbit readout
Latitude
Unknown
Longitude
Unknown
Altitude
Unknown
Speed
Unknown
Apparent Right ascension
Unknown
Apparent Declination
Unknown
Sunlit
N/A
Visualization observer readout
Local Sidereal Time
08:08:06
Azimuth
Unknown
Elevation
Unknown
Doppler factor
Unknown
Orbital elements
Apogee altitude
360.593 km
Perigee altitude
359.353 km
Semi-major axis
6,738.11 km
Eccentricity
0.00009
Inclination
53.1587°
RAAN
143.8747°
Arg. of periapsis
83.1164°
True anomaly
276.98534°
Mean anomaly
276.9958°
Eccentric anomaly
276.99057°
Mean motion
3.92406 °/min
Orbital period
91.74 mins
BSTAR
0.0000037826
Loading maneuver chart data...
Computing Atmospheric mass density...
Loading historical data...
Loading historical data...
Loading historical data...
Loading historical data...
Loading historical data...
Loading historical data...
Loading historical data...

Documentation

Showing up to 5 results
|